Regional Weather Roundup
Issued by NWS Charleston, SC

Current Version | Previous Version | Graphics & Text | Print | Product List | Glossary On
Versions: 1 2 3 4 5 6 7 8 9 10 11 12 13 14 15 16 17 18 19 20 21 22 23 24 25 26 27 28 29 30 31 32 33 34 35 36 37 38 39 40 41 42 43 44 45 46 47 48 49 50
000 ASUS42 KCHS 220025 RWRCHS REGIONAL WEATHER ROUNDUP NATIONAL WEATHER SERVICE CHARLESTON SC 800 PM EDT SUN SEP 21 2014 NOTE: "FAIR" INDICATES FEW OR NO CLOUDS BELOW 12,000 FEET WITH NO SIGNIFICANT WEATHER AND/OR OBSTRUCTIONS TO VISIBILITY. NOT ALL STATIONS ARE QUALITY CONTROLLED BY THE NATIONAL WEATHER SERVICE. USE DATA WITH CAUTION...ESPECIALLY DEWPOINT OBSERVATIONS. SCZ027-030-031-034>040-042>050-220100- ...SOUTH CAROLINA... CITY SKY/WX TMP DP RH WIND PRES REMARKS N CHARLESTON PTCLDY 78 66 66 SW7 29.92R 6HR MIN TEMP: 77; 6HR MAX TEMP: 89; WATERFRONT PRK NOT AVBL FORT JOHNSON NOT AVBL MOUNT PLEASANT FAIR 77 70 78 S7 29.92S JOHNS ISLAND CLEAR 79 75 89 SW3 29.94R PINOPOLIS N/A 82 66 57 SW5 29.82F MONCKS CORNER N/A 77 70 78 CALM 29.91R SUMMERVILLE FAIR 77 68 73 S5 29.92S BEAUFORT MCAS CLEAR 77 68 73 E3 29.94R 6HR MIN TEMP: 77; 6HR MAX TEMP: 89; BEAUFORT ARPT FAIR 73 68 83 S5 29.94R HILTON HEAD IS CLEAR 73 70 88 S5 29.97R GEORGETOWN NOT AVBL WALTERBORO PTCLDY 77 63 61 SW7 29.93S ORANGEBURG CLEAR 76 65 68 CALM 29.91R 6HR MIN TEMP: 75; 6HR MAX TEMP: 89; BARNWELL FAIR 75 66 73 CALM 29.92R AIKEN FAIR 75 66 73 SW5 29.96R MANNING FAIR 73 70 88 CALM 29.90R KINGSTREE NOT AVBL COLUMBIA PTCLDY 80 63 55 SW5 29.88R 6HR MIN TEMP: 80; 6HR MAX TEMP: 90; SUMTER CLEAR 77 67 72 SW7 29.87R 6HR MIN TEMP: 77; 6HR MAX TEMP: 88; FLORENCE CLEAR 77 65 66 S3 29.88R 6HR MIN TEMP: 77; 6HR MAX TEMP: 88; MYRTLE BEACH CLEAR 82 64 54 SW9 29.89R N MYRTLE BEACH CLEAR 78 65 63 SW7 29.88R 6HR MIN TEMP: 75; 6HR MAX TEMP: 86; $$ GAZ063-065-086>088-099>101-113>116-118-119-134-136>141-150-220100- ...GEORGIA... CITY SKY/WX TMP DP RH WIND PRES REMARKS SAVANNAH ARPT PTCLDY 79 64 60 CALM 29.96R 6HR MIN TEMP: 79; 6HR MAX TEMP: 89; HUNTER AAF CLEAR 76 67 71 SW2 29.94R 6HR MIN TEMP: 76; 6HR MAX TEMP: 88; FORT STEWART CLEAR 77 65 68 CALM 29.95R 6HR MIN TEMP: 77; 6HR MAX TEMP: 89; STATESBORO NOT AVBL SYLVANIA CLEAR 79 71 77 CALM 29.94S CLAXTON FAIR 73 72 94 CALM 29.96R THOMSON CLEAR 76 71 84 CALM 29.97R AUGUSTA-BUSH CLEAR 77 62 59 CALM 29.91R 6HR MIN TEMP: 76; 6HR MAX TEMP: 90; AUGUSTA-DANIEL CLEAR 82 63 52 VRB3 29.93R SWAINSBORO FAIR 81 66 61 SW3 29.96R VIDALIA CLEAR 77 63 61 CALM 29.97R ALMA CLEAR 73 63 70 CALM 29.97R 6HR MIN TEMP: 72; 6HR MAX TEMP: 89; WAYCROSS NOT AVBL JESUP FAIR 75 66 73 CALM 29.98R BRUNSWICK CLEAR 79 64 61 S5 29.99R SAINT SIMONS CLEAR 79 67 66 S6 29.98R 6HR MIN TEMP: 79; 6HR MAX TEMP: 87; $$ SCZ027-028-034-036>038-045-046-048>050-GAZ119-141-220100- ...LAKE AND SUPPLEMENTAL COASTAL OBSERVATIONS... STATION/POSITION TIME TEMP WIND PRES WAVE SWELL AIR SEA DIR/SP/G HT/PER HT/PER/DIR (UTC) (F) (DEG/KT/KT) (MB) (FT/S) (FT/S/D) UPR LAKE MARION NOT AVBL WINYAH BAY 2300 82 230/ 4 1012.0S LAKE MURRAY 2300 83 250/ 7/ 9 1011.2R ACE BASIN NERRS 2300 83 250/ 2 1013.0S FORT PULASKI 0000 80 200/ 7/ 11 1014.6R SAPELO ISLAND 2300 83 170/ 9 1015.0S $$ ANZ835-935-AMZ111-154-330-350-352-354-374-450-454-472-220100- ...C-MAN AND BUOY OBSERVATIONS... STATION/POSITION TIME TEMP WIND PRES WAVE SWELL AIR SEA DIR/SP/G HT/PER HT/PER/DIR (UTC) (F) (DEG/KT/KT) (MB) (FT/S) (FT/S/D) FOLLY BEACH CMAN 0000 80 220/ 12/ 14 1013.9R BUOY 41004 0000 81 82 220/ 14/ 16 1013.1R 3/ 9 3/ 9 BUOY 41008 0000 81 83 200/ 14/ 17 1014.5R 2/11 2/ 90/11 5E ST. MARYS GA 0000 84 N/A 3/10 FRYING PAN BUOY NOT AVBL BUOY 41025 0000 78 240/ 17/ 21 1009.7R 7/ 9 7/120/ 9 CAPE LOOKOUT NC 0000 78 230/ 9/ 12 1010.9R BUOY 41002 NOT AVBL BUOY 41010 0000 82 85 340/ 2/ 4 1015.7R 5/10 5/ 20/10 BUOY 41012 NOT AVBL ST AUGUSTINE FL 0000 80 90/ 4/ 5 1016.5R CAPERS NEARSHORE 2300 80 220/ 14/ 16 N/A FRIPP NEARSHORE NOT AVBL $$

USA.gov is the U.S. government's official web portal to all federal, state and local government web resources and services.